Year,Month,Day,Hour,Minute,Value (Times are PST for temperature in C)
2018,05,30,00,00,10.80
2018,05,30,00,01,10.80
2018,05,30,00,02,10.80
2018,05,30,00,03,10.80
2018,05,30,00,04,10.80
2018,05,30,00,05,10.80
2018,05,30,00,06,10.80
2018,05,30,00,07,10.80
2018,05,30,00,08,10.80
2018,05,30,00,09,10.80
2018,05,30,00,10,10.80
2018,05,30,00,11,10.80
2018,05,30,00,12,10.80
2018,05,30,00,13,10.80
2018,05,30,00,14,10.80
2018,05,30,00,15,10.80
2018,05,30,00,16,10.80
2018,05,30,00,17,10.80
2018,05,30,00,18,10.80
2018,05,30,00,19,10.80
2018,05,30,00,20,10.70
2018,05,30,00,21,10.70
2018,05,30,00,22,10.70
2018,05,30,00,23,10.70
2018,05,30,00,24,10.70
2018,05,30,00,25,10.70
2018,05,30,00,26,10.70
2018,05,30,00,27,10.70
2018,05,30,00,28,10.70
2018,05,30,00,29,10.70
2018,05,30,00,30,10.70
2018,05,30,00,31,10.70
2018,05,30,00,32,10.70
2018,05,30,00,33,10.70
2018,05,30,00,34,10.70
2018,05,30,00,35,10.70
2018,05,30,00,36,10.70
2018,05,30,00,37,10.70
2018,05,30,00,38,10.70
2018,05,30,00,39,10.70
2018,05,30,00,40,10.60
2018,05,30,00,41,10.60
2018,05,30,00,42,10.60
2018,05,30,00,43,10.60
2018,05,30,00,44,10.60
2018,05,30,00,45,10.70
2018,05,30,00,46,10.70
2018,05,30,00,47,10.60
2018,05,30,00,48,10.60
2018,05,30,00,49,10.60
2018,05,30,00,50,10.60
2018,05,30,00,51,10.60
2018,05,30,00,52,10.60
2018,05,30,00,53,10.60
2018,05,30,00,54,10.60
2018,05,30,00,55,10.60
2018,05,30,00,56,10.60
2018,05,30,00,57,10.60
2018,05,30,00,58,10.60
2018,05,30,00,59,10.60
2018,05,30,01,00,10.60
2018,05,30,01,01,10.60
2018,05,30,01,02,10.60
2018,05,30,01,03,10.60
2018,05,30,01,04,10.60
2018,05,30,01,05,10.60
2018,05,30,01,06,10.60
2018,05,30,01,07,10.60
2018,05,30,01,08,10.50
2018,05,30,01,09,10.50
2018,05,30,01,10,10.50
2018,05,30,01,11,10.50
2018,05,30,01,12,10.50
2018,05,30,01,13,10.50
2018,05,30,01,14,10.50
2018,05,30,01,15,10.50
2018,05,30,01,16,10.50
2018,05,30,01,17,10.50
2018,05,30,01,18,10.40
2018,05,30,01,19,10.40
2018,05,30,01,20,10.40
2018,05,30,01,21,10.40
2018,05,30,01,22,10.40
2018,05,30,01,23,10.40
2018,05,30,01,24,10.40
2018,05,30,01,25,10.40
2018,05,30,01,26,10.40
2018,05,30,01,27,10.40
2018,05,30,01,28,10.40
2018,05,30,01,29,10.40
2018,05,30,01,30,10.40
2018,05,30,01,31,10.40
2018,05,30,01,32,10.40
2018,05,30,01,33,10.30
2018,05,30,01,34,10.40
2018,05,30,01,35,10.40
2018,05,30,01,36,10.40
2018,05,30,01,37,10.40
2018,05,30,01,38,10.40
2018,05,30,01,39,10.40
2018,05,30,01,40,10.40
2018,05,30,01,41,10.40
2018,05,30,01,42,10.40
2018,05,30,01,43,10.40
2018,05,30,01,44,10.30
2018,05,30,01,45,10.40
2018,05,30,01,46,10.40
2018,05,30,01,47,10.40
2018,05,30,01,48,10.30
2018,05,30,01,49,10.30
2018,05,30,01,50,10.30
2018,05,30,01,51,10.30
2018,05,30,01,52,10.30
2018,05,30,01,53,10.30
2018,05,30,01,54,10.30
2018,05,30,01,55,10.30
2018,05,30,01,56,10.30
2018,05,30,01,57,10.30
2018,05,30,01,58,10.30
2018,05,30,01,59,10.30
2018,05,30,02,00,10.30
2018,05,30,02,01,10.30
2018,05,30,02,02,10.30
2018,05,30,02,03,10.30
2018,05,30,02,04,10.30
2018,05,30,02,05,10.20
2018,05,30,02,06,10.20
2018,05,30,02,07,10.20
2018,05,30,02,08,10.20
2018,05,30,02,09,10.20
2018,05,30,02,10,10.20
2018,05,30,02,11,10.30
2018,05,30,02,12,10.30
2018,05,30,02,13,10.30
2018,05,30,02,14,10.30
2018,05,30,02,15,10.20
2018,05,30,02,16,10.20
2018,05,30,02,17,10.20
2018,05,30,02,18,10.20
2018,05,30,02,19,10.20
2018,05,30,02,20,10.20
2018,05,30,02,21,10.20
2018,05,30,02,22,10.20
2018,05,30,02,23,10.20
2018,05,30,02,24,10.20
2018,05,30,02,25,10.20
2018,05,30,02,26,10.20
2018,05,30,02,27,10.20
2018,05,30,02,28,10.20
2018,05,30,02,29,10.20
2018,05,30,02,30,10.20
2018,05,30,02,31,10.20
2018,05,30,02,32,10.20
2018,05,30,02,33,10.20
2018,05,30,02,34,10.20
2018,05,30,02,35,10.20
2018,05,30,02,36,10.20
2018,05,30,02,37,10.20
2018,05,30,02,38,10.20
2018,05,30,02,39,10.20
2018,05,30,02,40,10.20
2018,05,30,02,41,10.10
2018,05,30,02,42,10.10
2018,05,30,02,43,10.10
2018,05,30,02,44,10.10
2018,05,30,02,45,10.10
2018,05,30,02,46,10.10
2018,05,30,02,47,10.10
2018,05,30,02,48,10.10
2018,05,30,02,49,10.10
2018,05,30,02,50,10.10
2018,05,30,02,51,10.10
2018,05,30,02,52,10.10
2018,05,30,02,53,10.10
2018,05,30,02,54,10.10
2018,05,30,02,55,10.10
2018,05,30,02,56,10.00
2018,05,30,02,57,10.00
2018,05,30,02,58,10.00
2018,05,30,02,59,10.00
2018,05,30,03,00,10.00
2018,05,30,03,01,10.00
2018,05,30,03,02,10.00
2018,05,30,03,03,9.90
2018,05,30,03,04,9.90
2018,05,30,03,05,9.90
2018,05,30,03,06,9.90
2018,05,30,03,07,9.90
2018,05,30,03,08,9.90
2018,05,30,03,09,9.90
2018,05,30,03,10,9.90
2018,05,30,03,11,9.90
2018,05,30,03,12,9.90
2018,05,30,03,13,9.90
2018,05,30,03,14,9.90
2018,05,30,03,15,9.90
2018,05,30,03,16,9.90
2018,05,30,03,17,9.80
2018,05,30,03,18,9.90
2018,05,30,03,19,9.90
2018,05,30,03,20,9.90
2018,05,30,03,21,9.90
2018,05,30,03,22,9.90
2018,05,30,03,23,9.80
2018,05,30,03,24,9.80
2018,05,30,03,25,9.80
2018,05,30,03,26,9.80
2018,05,30,03,27,9.80
2018,05,30,03,28,9.80
2018,05,30,03,29,9.80
2018,05,30,03,30,9.80
2018,05,30,03,31,9.80
2018,05,30,03,32,9.80
2018,05,30,03,33,9.80
2018,05,30,03,34,9.80
2018,05,30,03,35,9.80
2018,05,30,03,36,9.80
2018,05,30,03,37,9.80
2018,05,30,03,38,9.80
2018,05,30,03,39,9.80
2018,05,30,03,40,9.70
2018,05,30,03,41,9.70
2018,05,30,03,42,9.70
2018,05,30,03,43,9.70
2018,05,30,03,44,9.70
2018,05,30,03,45,9.70
2018,05,30,03,46,9.70
2018,05,30,03,47,9.60
2018,05,30,03,48,9.60
2018,05,30,03,49,9.60
2018,05,30,03,50,9.60
2018,05,30,03,51,9.60
2018,05,30,03,52,9.60
2018,05,30,03,53,9.60
2018,05,30,03,54,9.60
2018,05,30,03,55,9.60
2018,05,30,03,56,9.60
2018,05,30,03,57,9.50
2018,05,30,03,58,9.50
2018,05,30,03,59,9.50
2018,05,30,04,00,9.40
2018,05,30,04,01,9.40
2018,05,30,04,02,9.40
2018,05,30,04,03,9.40
2018,05,30,04,04,9.30
2018,05,30,04,05,9.30
2018,05,30,04,06,9.30
2018,05,30,04,07,9.20
2018,05,30,04,08,9.20
2018,05,30,04,09,9.20
2018,05,30,04,10,9.10
2018,05,30,04,11,9.10
2018,05,30,04,12,9.00
2018,05,30,04,13,8.90
2018,05,30,04,14,8.90
2018,05,30,04,15,8.80
2018,05,30,04,16,8.70
2018,05,30,04,17,8.50
2018,05,30,04,18,8.40
2018,05,30,04,19,8.40
2018,05,30,04,20,8.30
2018,05,30,04,21,8.20
2018,05,30,04,22,8.10
2018,05,30,04,23,8.10
2018,05,30,04,24,8.10
2018,05,30,04,25,8.10
2018,05,30,04,26,8.00
2018,05,30,04,27,8.00
2018,05,30,04,28,8.00
2018,05,30,04,29,8.00
2018,05,30,04,30,8.00
2018,05,30,04,31,8.00
2018,05,30,04,32,8.00
2018,05,30,04,33,8.00
2018,05,30,04,34,8.00
2018,05,30,04,35,8.00
2018,05,30,04,36,8.00
2018,05,30,04,37,8.00
2018,05,30,04,38,8.00
2018,05,30,04,39,8.00
2018,05,30,04,40,8.00
2018,05,30,04,41,8.10
2018,05,30,04,42,8.10
2018,05,30,04,43,8.10
2018,05,30,04,44,8.10
2018,05,30,04,45,8.10
2018,05,30,04,46,8.10
2018,05,30,04,47,8.10
2018,05,30,04,48,8.10
2018,05,30,04,49,8.10
2018,05,30,04,50,8.10
2018,05,30,04,51,8.10
2018,05,30,04,52,8.00
2018,05,30,04,53,8.00
2018,05,30,04,54,7.90
2018,05,30,04,55,7.90
2018,05,30,04,56,7.90
2018,05,30,04,57,7.90
2018,05,30,04,58,7.90
2018,05,30,04,59,7.80
2018,05,30,05,00,7.80
2018,05,30,05,01,7.80
2018,05,30,05,02,7.80
2018,05,30,05,03,7.80
2018,05,30,05,04,7.80
2018,05,30,05,05,7.80
2018,05,30,05,06,7.80
2018,05,30,05,07,7.80
2018,05,30,05,08,7.80
2018,05,30,05,09,7.90
2018,05,30,05,10,7.90
2018,05,30,05,11,7.90
2018,05,30,05,12,7.90
2018,05,30,05,13,7.90
2018,05,30,05,14,7.90
2018,05,30,05,15,7.90
2018,05,30,05,16,7.90
2018,05,30,05,17,7.90
2018,05,30,05,18,7.90
2018,05,30,05,19,7.80
2018,05,30,05,20,7.80
2018,05,30,05,21,7.80
2018,05,30,05,22,7.80
2018,05,30,05,23,7.70
2018,05,30,05,24,7.70
2018,05,30,05,25,7.70
2018,05,30,05,26,7.70
2018,05,30,05,27,7.70
2018,05,30,05,28,7.60
2018,05,30,05,29,7.60
2018,05,30,05,30,7.60
2018,05,30,05,31,7.60
2018,05,30,05,32,7.60
2018,05,30,05,33,7.50
2018,05,30,05,34,7.50
2018,05,30,05,35,7.50
2018,05,30,05,36,7.50
2018,05,30,05,37,7.50
2018,05,30,05,38,7.50
2018,05,30,05,39,7.50
2018,05,30,05,40,7.50
2018,05,30,05,41,7.50
2018,05,30,05,42,7.50
2018,05,30,05,43,7.50
2018,05,30,05,44,7.50
2018,05,30,05,45,7.50
2018,05,30,05,46,7.50
2018,05,30,05,47,7.60
2018,05,30,05,48,7.60
2018,05,30,05,49,7.60
2018,05,30,05,50,7.60
2018,05,30,05,51,7.60
2018,05,30,05,52,7.60
2018,05,30,05,53,7.70
2018,05,30,05,54,7.70
2018,05,30,05,55,7.70
2018,05,30,05,56,7.70
2018,05,30,05,57,7.70
2018,05,30,05,58,7.70
2018,05,30,05,59,7.70
2018,05,30,06,00,7.70
2018,05,30,06,01,7.70
2018,05,30,06,02,7.70
2018,05,30,06,03,7.70
2018,05,30,06,04,7.70
2018,05,30,06,05,7.80
2018,05,30,06,06,7.80
2018,05,30,06,07,7.80
2018,05,30,06,08,7.80
2018,05,30,06,09,7.80
2018,05,30,06,10,7.90
2018,05,30,06,11,7.90
2018,05,30,06,12,7.90
2018,05,30,06,13,7.90
2018,05,30,06,14,7.90
2018,05,30,06,15,7.90
2018,05,30,06,16,7.90
2018,05,30,06,17,7.90
2018,05,30,06,18,8.00
2018,05,30,06,19,8.00
2018,05,30,06,20,8.00
2018,05,30,06,21,8.10
2018,05,30,06,22,8.10
2018,05,30,06,23,8.10
2018,05,30,06,24,8.10
2018,05,30,06,25,8.10
2018,05,30,06,26,8.20
2018,05,30,06,27,8.20
2018,05,30,06,28,8.20
2018,05,30,06,29,8.30
2018,05,30,06,30,8.30
2018,05,30,06,31,8.30
2018,05,30,06,32,8.40
2018,05,30,06,33,8.40
2018,05,30,06,34,8.40
2018,05,30,06,35,8.40
2018,05,30,06,36,8.50
2018,05,30,06,37,8.50
2018,05,30,06,38,8.50
2018,05,30,06,39,8.60
2018,05,30,06,40,8.60
2018,05,30,06,41,8.60
2018,05,30,06,42,8.60
2018,05,30,06,43,8.70
2018,05,30,06,44,8.70
2018,05,30,06,45,8.70
2018,05,30,06,46,8.70
2018,05,30,06,47,8.70
2018,05,30,06,48,8.70
2018,05,30,06,49,8.70
2018,05,30,06,50,8.80
2018,05,30,06,51,8.80
2018,05,30,06,52,8.80
2018,05,30,06,53,8.80
2018,05,30,06,54,8.80
2018,05,30,06,55,8.80
2018,05,30,06,56,8.80
2018,05,30,06,57,8.80
2018,05,30,06,58,8.80
2018,05,30,06,59,8.80
2018,05,30,07,00,8.80
2018,05,30,07,01,8.80
2018,05,30,07,02,8.90
2018,05,30,07,03,8.90
2018,05,30,07,04,8.90
2018,05,30,07,05,8.90
2018,05,30,07,06,8.90
2018,05,30,07,07,8.90
2018,05,30,07,08,8.90
2018,05,30,07,09,9.00
2018,05,30,07,10,9.00
2018,05,30,07,11,9.00
2018,05,30,07,12,9.10
2018,05,30,07,13,9.10
2018,05,30,07,14,9.10
2018,05,30,07,15,9.20
2018,05,30,07,16,9.20
2018,05,30,07,17,9.30
2018,05,30,07,18,9.30
2018,05,30,07,19,9.30
2018,05,30,07,20,9.40
2018,05,30,07,21,9.40
2018,05,30,07,22,9.40
2018,05,30,07,23,9.40
2018,05,30,07,24,9.40
2018,05,30,07,25,9.40
2018,05,30,07,26,9.40
2018,05,30,07,27,9.40
2018,05,30,07,28,9.50
2018,05,30,07,29,9.50
2018,05,30,07,30,9.50
2018,05,30,07,31,9.60
2018,05,30,07,32,9.60
2018,05,30,07,33,9.60
2018,05,30,07,34,9.60
2018,05,30,07,35,9.70
2018,05,30,07,36,9.70
2018,05,30,07,37,9.70
2018,05,30,07,38,9.70
2018,05,30,07,39,9.70
2018,05,30,07,40,9.80
2018,05,30,07,41,9.80
2018,05,30,07,42,9.80
2018,05,30,07,43,9.80
2018,05,30,07,44,9.90
2018,05,30,07,45,9.90
2018,05,30,07,46,10.00
2018,05,30,07,47,10.10
2018,05,30,07,48,10.10
2018,05,30,07,49,10.10
2018,05,30,07,50,10.10
2018,05,30,07,51,10.20
2018,05,30,07,52,10.20
2018,05,30,07,53,10.20
2018,05,30,07,54,10.30
2018,05,30,07,55,10.30
2018,05,30,07,56,10.30
2018,05,30,07,57,10.30
2018,05,30,07,58,10.40
2018,05,30,07,59,10.40
2018,05,30,08,00,10.40
2018,05,30,08,01,10.50
2018,05,30,08,02,10.50
2018,05,30,08,03,10.50
2018,05,30,08,04,10.60
2018,05,30,08,05,10.60
2018,05,30,08,06,10.60
2018,05,30,08,07,10.60
2018,05,30,08,08,10.70
2018,05,30,08,09,10.70
2018,05,30,08,10,10.70
2018,05,30,08,11,10.80
2018,05,30,08,12,10.80
2018,05,30,08,13,10.90
2018,05,30,08,14,10.90
2018,05,30,08,15,10.90
2018,05,30,08,16,11.00
2018,05,30,08,17,11.10
2018,05,30,08,18,11.10
2018,05,30,08,19,11.10
2018,05,30,08,20,11.20
2018,05,30,08,21,11.20
2018,05,30,08,22,11.30
2018,05,30,08,23,11.30
2018,05,30,08,24,11.40
2018,05,30,08,25,11.50
2018,05,30,08,26,11.50
2018,05,30,08,27,11.60
2018,05,30,08,28,11.70
2018,05,30,08,29,11.70
2018,05,30,08,30,11.70
2018,05,30,08,31,11.80
2018,05,30,08,32,11.80
2018,05,30,08,33,11.90
2018,05,30,08,34,11.90
2018,05,30,08,35,12.00
2018,05,30,08,36,12.10
2018,05,30,08,37,12.10
2018,05,30,08,38,12.20
2018,05,30,08,39,12.30
2018,05,30,08,40,12.30
2018,05,30,08,41,12.40
2018,05,30,08,42,12.50
2018,05,30,08,43,12.50
2018,05,30,08,44,12.60
2018,05,30,08,45,12.60
2018,05,30,08,46,12.70
2018,05,30,08,47,12.70
2018,05,30,08,48,12.70
2018,05,30,08,49,12.60
2018,05,30,08,50,12.60
2018,05,30,08,51,12.60
2018,05,30,08,52,12.50
2018,05,30,08,53,12.50
2018,05,30,08,54,12.50
2018,05,30,08,55,12.50
2018,05,30,08,56,12.50
2018,05,30,08,57,12.50
2018,05,30,08,58,12.60
2018,05,30,08,59,12.60
2018,05,30,09,00,12.70
2018,05,30,09,01,12.70
2018,05,30,09,02,12.80
2018,05,30,09,03,12.80
2018,05,30,09,04,12.80
2018,05,30,09,05,12.90
2018,05,30,09,06,12.90
2018,05,30,09,07,13.00
2018,05,30,09,08,13.00
2018,05,30,09,09,13.00
2018,05,30,09,10,13.10
2018,05,30,09,11,13.10
2018,05,30,09,12,13.20
2018,05,30,09,13,13.20
2018,05,30,09,14,13.20
2018,05,30,09,15,13.30
2018,05,30,09,16,13.30
2018,05,30,09,17,13.40
2018,05,30,09,18,13.40
2018,05,30,09,19,13.40
2018,05,30,09,20,13.40
2018,05,30,09,21,13.40
2018,05,30,09,22,13.40
2018,05,30,09,23,13.40
2018,05,30,09,24,13.40
2018,05,30,09,25,13.40
2018,05,30,09,26,13.40
2018,05,30,09,27,13.40
2018,05,30,09,28,13.50
2018,05,30,09,29,13.50
2018,05,30,09,30,13.60
2018,05,30,09,31,13.60
2018,05,30,09,32,13.60
2018,05,30,09,33,13.60
2018,05,30,09,34,13.70
2018,05,30,09,35,13.70
2018,05,30,09,36,13.70
2018,05,30,09,37,13.70
2018,05,30,09,38,13.70
2018,05,30,09,39,13.70
2018,05,30,09,40,13.70
2018,05,30,09,41,13.70
2018,05,30,09,42,13.70
2018,05,30,09,43,13.70
2018,05,30,09,44,13.80
2018,05,30,09,45,13.80
2018,05,30,09,46,13.90
2018,05,30,09,47,14.00
2018,05,30,09,48,14.00
2018,05,30,09,49,14.10
2018,05,30,09,50,14.10
2018,05,30,09,51,14.10
2018,05,30,09,52,14.10
2018,05,30,09,53,14.10
2018,05,30,09,54,14.10
2018,05,30,09,55,14.10
2018,05,30,09,56,14.20
2018,05,30,09,57,14.20
2018,05,30,09,58,14.30
2018,05,30,09,59,14.30
2018,05,30,10,00,14.40
2018,05,30,10,01,14.40
2018,05,30,10,02,14.40
2018,05,30,10,03,14.40
2018,05,30,10,04,14.40
2018,05,30,10,05,14.40
2018,05,30,10,06,14.50
2018,05,30,10,07,14.50
2018,05,30,10,08,14.60
2018,05,30,10,09,14.60
2018,05,30,10,10,14.60
2018,05,30,10,11,14.50
2018,05,30,10,12,14.50
2018,05,30,10,13,14.40
2018,05,30,10,14,14.30
2018,05,30,10,15,14.30
2018,05,30,10,16,14.30
2018,05,30,10,17,14.40
2018,05,30,10,18,14.40
2018,05,30,10,19,14.30
2018,05,30,10,20,14.30
2018,05,30,10,21,14.20
2018,05,30,10,22,14.20
2018,05,30,10,23,14.10
2018,05,30,10,24,14.20
2018,05,30,10,25,14.20
2018,05,30,10,26,14.20
2018,05,30,10,27,14.20
2018,05,30,10,28,14.20
2018,05,30,10,29,14.20
2018,05,30,10,30,14.20
2018,05,30,10,31,14.20
2018,05,30,10,32,14.10
2018,05,30,10,33,14.10
2018,05,30,10,34,14.10
2018,05,30,10,35,14.00
2018,05,30,10,36,14.00
2018,05,30,10,37,14.00
2018,05,30,10,38,14.00
2018,05,30,10,39,14.10
2018,05,30,10,40,14.20
2018,05,30,10,41,14.20
2018,05,30,10,42,14.30
2018,05,30,10,43,14.30
2018,05,30,10,44,14.30
2018,05,30,10,45,14.30
2018,05,30,10,46,14.30
2018,05,30,10,47,14.30
2018,05,30,10,48,14.30
2018,05,30,10,49,14.30
2018,05,30,10,50,14.40
2018,05,30,10,51,14.50
2018,05,30,10,52,14.60
2018,05,30,10,53,14.60
2018,05,30,10,54,14.60
2018,05,30,10,55,14.50
2018,05,30,10,56,14.50
2018,05,30,10,57,14.40
2018,05,30,10,58,14.40
2018,05,30,10,59,14.30
2018,05,30,11,00,14.30
2018,05,30,11,01,14.30
2018,05,30,11,02,14.20
2018,05,30,11,03,14.20
2018,05,30,11,04,14.30
2018,05,30,11,05,14.30
2018,05,30,11,06,14.40
2018,05,30,11,07,14.50
2018,05,30,11,08,14.60
2018,05,30,11,09,14.60
2018,05,30,11,10,14.70
2018,05,30,11,11,14.70
2018,05,30,11,12,14.70
2018,05,30,11,13,14.70
2018,05,30,11,14,14.80
2018,05,30,11,15,14.80
2018,05,30,11,16,14.80
2018,05,30,11,17,14.80
2018,05,30,11,18,14.90
2018,05,30,11,19,14.90
2018,05,30,11,20,14.90
2018,05,30,11,21,14.90
2018,05,30,11,22,14.90
2018,05,30,11,23,14.90
2018,05,30,11,24,14.90
2018,05,30,11,25,14.90
2018,05,30,11,26,14.90
2018,05,30,11,27,14.90
2018,05,30,11,28,14.90
2018,05,30,11,29,14.90
2018,05,30,11,30,15.00
2018,05,30,11,31,15.00
2018,05,30,11,32,15.00
2018,05,30,11,33,15.00
2018,05,30,11,34,14.90
2018,05,30,11,35,14.90
2018,05,30,11,36,14.80
2018,05,30,11,37,14.70
2018,05,30,11,38,14.70
2018,05,30,11,39,14.60
2018,05,30,11,40,14.60
2018,05,30,11,41,14.70
2018,05,30,11,42,14.70
2018,05,30,11,43,14.70
2018,05,30,11,44,14.70
2018,05,30,11,45,14.80
2018,05,30,11,46,15.00
2018,05,30,11,47,15.10
2018,05,30,11,48,15.10
2018,05,30,11,49,15.10
2018,05,30,11,50,15.20
2018,05,30,11,51,15.20
2018,05,30,11,52,15.20
2018,05,30,11,53,15.20
2018,05,30,11,54,15.20
2018,05,30,11,55,15.20
2018,05,30,11,56,15.20
2018,05,30,11,57,15.20
2018,05,30,11,58,15.30
2018,05,30,11,59,15.20
2018,05,30,12,00,15.20
2018,05,30,12,01,15.20
2018,05,30,12,02,15.20
2018,05,30,12,03,15.10
2018,05,30,12,04,15.10
2018,05,30,12,05,15.10
2018,05,30,12,06,15.20
2018,05,30,12,07,15.20
2018,05,30,12,08,15.30
2018,05,30,12,09,15.30
2018,05,30,12,10,15.30
2018,05,30,12,11,15.40
2018,05,30,12,12,15.40
2018,05,30,12,13,15.30
2018,05,30,12,14,15.30
2018,05,30,12,15,15.30
2018,05,30,12,16,15.30
2018,05,30,12,17,15.30
2018,05,30,12,18,15.30
2018,05,30,12,19,15.30
2018,05,30,12,20,15.40
2018,05,30,12,21,15.40
2018,05,30,12,22,15.40
2018,05,30,12,23,15.30
2018,05,30,12,24,15.30
2018,05,30,12,25,15.30
2018,05,30,12,26,15.40
2018,05,30,12,27,15.40
2018,05,30,12,28,15.30
2018,05,30,12,29,15.20
2018,05,30,12,30,15.20
2018,05,30,12,31,15.10
2018,05,30,12,32,15.10
2018,05,30,12,33,15.10
2018,05,30,12,34,15.10
2018,05,30,12,35,15.10
2018,05,30,12,36,15.20
2018,05,30,12,37,15.20
2018,05,30,12,38,15.30
2018,05,30,12,39,15.30
2018,05,30,12,40,15.40
2018,05,30,12,41,15.50
2018,05,30,12,42,15.60
2018,05,30,12,43,15.60
2018,05,30,12,44,15.60
2018,05,30,12,45,15.60
2018,05,30,12,46,15.60
2018,05,30,12,47,15.50
2018,05,30,12,48,15.40
2018,05,30,12,49,15.30
2018,05,30,12,50,15.30
2018,05,30,12,51,15.20
2018,05,30,12,52,15.30
2018,05,30,12,53,15.30
2018,05,30,12,54,15.30
2018,05,30,12,55,15.30
2018,05,30,12,56,15.30
2018,05,30,12,57,15.40
2018,05,30,12,58,15.50
2018,05,30,12,59,15.50
2018,05,30,13,00,15.50
2018,05,30,13,01,15.40
2018,05,30,13,02,15.30
2018,05,30,13,03,15.30
2018,05,30,13,04,15.30
2018,05,30,13,05,15.30
2018,05,30,13,06,15.20
2018,05,30,13,07,15.20
2018,05,30,13,08,15.20
2018,05,30,13,09,15.20
2018,05,30,13,10,15.20
2018,05,30,13,11,15.10
2018,05,30,13,12,15.10
2018,05,30,13,13,15.10
2018,05,30,13,14,15.10
2018,05,30,13,15,15.10
2018,05,30,13,16,15.20
2018,05,30,13,17,15.20
2018,05,30,13,18,15.10
2018,05,30,13,19,15.10
2018,05,30,13,20,15.10
2018,05,30,13,21,15.10
2018,05,30,13,22,15.20
2018,05,30,13,23,15.30
2018,05,30,13,24,15.30
2018,05,30,13,25,15.30
2018,05,30,13,26,15.30
2018,05,30,13,27,15.30
2018,05,30,13,28,15.20
2018,05,30,13,29,15.20
2018,05,30,13,30,15.10
2018,05,30,13,31,15.10
2018,05,30,13,32,15.10
2018,05,30,13,33,15.10
2018,05,30,13,34,15.20
2018,05,30,13,35,15.20
2018,05,30,13,36,15.30
2018,05,30,13,37,15.30
2018,05,30,13,38,15.20
2018,05,30,13,39,15.20
2018,05,30,13,40,15.10
2018,05,30,13,41,15.10
2018,05,30,13,42,15.10
2018,05,30,13,43,15.20
2018,05,30,13,44,15.20
2018,05,30,13,45,15.20
2018,05,30,13,46,15.20
2018,05,30,13,47,15.20
2018,05,30,13,48,15.30
2018,05,30,13,49,15.30
2018,05,30,13,50,15.30
2018,05,30,13,51,15.40
2018,05,30,13,52,15.40
2018,05,30,13,53,15.40
2018,05,30,13,54,15.40
2018,05,30,13,55,15.40
2018,05,30,13,56,15.40
2018,05,30,13,57,15.40
2018,05,30,13,58,15.40
2018,05,30,13,59,15.30
2018,05,30,14,00,15.40
2018,05,30,14,01,15.40
2018,05,30,14,02,15.40
2018,05,30,14,03,15.50
2018,05,30,14,04,15.60
2018,05,30,14,05,15.60
2018,05,30,14,06,15.60
2018,05,30,14,07,15.50
2018,05,30,14,08,15.40
2018,05,30,14,09,15.40
2018,05,30,14,10,15.40
2018,05,30,14,11,15.40
2018,05,30,14,12,15.40
2018,05,30,14,13,15.40
2018,05,30,14,14,15.30
2018,05,30,14,15,15.30
2018,05,30,14,16,15.40
2018,05,30,14,17,15.50
2018,05,30,14,18,15.60
2018,05,30,14,19,15.70
2018,05,30,14,20,15.80
2018,05,30,14,21,15.80
2018,05,30,14,22,15.80
2018,05,30,14,23,15.80
2018,05,30,14,24,15.80
2018,05,30,14,25,15.80
2018,05,30,14,26,15.70
2018,05,30,14,27,15.70
2018,05,30,14,28,15.70
2018,05,30,14,29,15.70
2018,05,30,14,30,15.70
2018,05,30,14,31,15.70
2018,05,30,14,32,15.80
2018,05,30,14,33,15.80
2018,05,30,14,34,15.90
2018,05,30,14,35,16.00
2018,05,30,14,36,16.10
2018,05,30,14,37,16.10
2018,05,30,14,38,16.00
2018,05,30,14,39,15.90
2018,05,30,14,40,15.80
2018,05,30,14,41,15.70
2018,05,30,14,42,15.70
2018,05,30,14,43,15.60
2018,05,30,14,44,15.60
2018,05,30,14,45,15.50
2018,05,30,14,46,15.50
2018,05,30,14,47,15.40
2018,05,30,14,48,15.40
2018,05,30,14,49,15.50
2018,05,30,14,50,15.50
2018,05,30,14,51,15.60
2018,05,30,14,52,15.50
2018,05,30,14,53,15.40
2018,05,30,14,54,15.30
2018,05,30,14,55,15.30
2018,05,30,14,56,15.30
2018,05,30,14,57,15.30
2018,05,30,14,58,15.30
2018,05,30,14,59,15.20
2018,05,30,15,00,15.30
2018,05,30,15,01,15.30
2018,05,30,15,02,15.30
2018,05,30,15,03,15.30
2018,05,30,15,04,15.30
2018,05,30,15,05,15.30
2018,05,30,15,06,15.30
2018,05,30,15,07,15.30
2018,05,30,15,08,15.40
2018,05,30,15,09,15.40
2018,05,30,15,10,15.40
2018,05,30,15,11,15.40
2018,05,30,15,12,15.40
2018,05,30,15,13,15.50
2018,05,30,15,14,15.60
2018,05,30,15,15,15.70
2018,05,30,15,16,15.70
2018,05,30,15,17,15.70
2018,05,30,15,18,15.70
2018,05,30,15,19,15.70
2018,05,30,15,20,15.70
2018,05,30,15,21,15.60
2018,05,30,15,22,15.60
2018,05,30,15,23,15.60
2018,05,30,15,24,15.60
2018,05,30,15,25,15.60
2018,05,30,15,26,15.60
2018,05,30,15,27,15.60
2018,05,30,15,28,15.60
2018,05,30,15,29,15.60
2018,05,30,15,30,15.60
2018,05,30,15,31,15.60
2018,05,30,15,32,15.70
2018,05,30,15,33,15.70
2018,05,30,15,34,15.80
2018,05,30,15,35,15.80
2018,05,30,15,36,15.90
2018,05,30,15,37,16.00
2018,05,30,15,38,16.10
2018,05,30,15,39,16.00
2018,05,30,15,40,16.00
2018,05,30,15,41,16.00
2018,05,30,15,42,15.90
2018,05,30,15,43,15.90
2018,05,30,15,44,15.80
2018,05,30,15,45,15.80
2018,05,30,15,46,15.80
2018,05,30,15,47,15.80
2018,05,30,15,48,15.80
2018,05,30,15,49,15.90
2018,05,30,15,50,16.00
2018,05,30,15,51,16.00
2018,05,30,15,52,16.10
2018,05,30,15,53,16.30
2018,05,30,15,54,16.30
2018,05,30,15,55,16.30
2018,05,30,15,56,16.30
2018,05,30,15,57,16.20
2018,05,30,15,58,16.20
2018,05,30,15,59,16.10
2018,05,30,16,00,16.10
2018,05,30,16,01,16.00
2018,05,30,16,02,16.00
2018,05,30,16,03,16.00
2018,05,30,16,04,16.00
2018,05,30,16,05,16.10
2018,05,30,16,06,16.20
2018,05,30,16,07,16.20
2018,05,30,16,08,16.20
2018,05,30,16,09,16.20
2018,05,30,16,10,16.10
2018,05,30,16,11,16.00
2018,05,30,16,12,15.90
2018,05,30,16,13,15.90
2018,05,30,16,14,15.90
2018,05,30,16,15,15.80
2018,05,30,16,16,15.90
2018,05,30,16,17,15.90
2018,05,30,16,18,15.90
2018,05,30,16,19,15.80
2018,05,30,16,20,15.80
2018,05,30,16,21,15.70
2018,05,30,16,22,15.70
2018,05,30,16,23,15.70
2018,05,30,16,24,15.70
2018,05,30,16,25,15.70
2018,05,30,16,26,15.70
2018,05,30,16,27,15.70
2018,05,30,16,28,15.60
2018,05,30,16,29,15.60
2018,05,30,16,30,15.50
2018,05,30,16,31,15.50
2018,05,30,16,32,15.50
2018,05,30,16,33,15.60
2018,05,30,16,34,15.60
2018,05,30,16,35,15.50
2018,05,30,16,36,15.40
2018,05,30,16,37,15.30
2018,05,30,16,38,15.30
2018,05,30,16,39,15.30
2018,05,30,16,40,15.30
2018,05,30,16,41,15.30
2018,05,30,16,42,15.20
2018,05,30,16,43,15.20
2018,05,30,16,44,15.30
2018,05,30,16,45,15.30
2018,05,30,16,46,15.30
2018,05,30,16,47,15.40
2018,05,30,16,48,15.40
2018,05,30,16,49,15.50
2018,05,30,16,50,15.50
2018,05,30,16,51,15.60
2018,05,30,16,52,15.60
2018,05,30,16,53,15.60
2018,05,30,16,54,15.50
2018,05,30,16,55,15.40
2018,05,30,16,56,15.40
2018,05,30,16,57,15.50
2018,05,30,16,58,15.50
2018,05,30,16,59,15.60
2018,05,30,17,00,15.50
2018,05,30,17,01,15.50
2018,05,30,17,02,15.50
2018,05,30,17,03,15.50
2018,05,30,17,04,15.60
2018,05,30,17,05,15.60
2018,05,30,17,06,15.70
2018,05,30,17,07,15.70
2018,05,30,17,08,15.70
2018,05,30,17,09,15.70
2018,05,30,17,10,15.70
2018,05,30,17,11,15.70
2018,05,30,17,12,15.70
2018,05,30,17,13,15.70
2018,05,30,17,14,15.70
2018,05,30,17,15,15.60
2018,05,30,17,16,15.60
2018,05,30,17,17,15.60
2018,05,30,17,18,15.60
2018,05,30,17,19,15.60
2018,05,30,17,20,15.60
2018,05,30,17,21,15.70
2018,05,30,17,22,15.70
2018,05,30,17,23,15.80
2018,05,30,17,24,15.80
2018,05,30,17,25,15.80
2018,05,30,17,26,15.90
2018,05,30,17,27,15.90
2018,05,30,17,28,15.90
2018,05,30,17,29,15.90
2018,05,30,17,30,16.00
2018,05,30,17,31,16.10